www.pogodaiklimat.ru

Погода и климат >> Архив погоды >> Аргентина >> Buenos Aires Aeropuerto


АРХИВ ПОГОДЫ в Buenos Aires Aeropuerto

Время (UTC), дата Ветер
(напр.,м/с)
 
Видим.   Явления Облачность Т
(С)
Тd
(С)
f
(%)
Тe
(С)
Тes
(С)
Комфортность P
(гПа)
Po
(гПа)
Тmin
(С)
Tmax
(С)
R
(мм)
S
(см)
03 21.03 В 8 10 км 6/4 420 м
[Sc Cs]
+21.3 +18.3 83 +26 +26 душно 1023.0 1022.4
06 21.03 СВ 7 10 км ясно +20.6 +16.9 79 +24 +24 комфорт 1022.7 1022.0
09 21.03 В 4 10 км 4/4 450 м
[Frnb]
+19.9 +15.9 78 +22 +22 комфорт 1023.4 1022.8
12 21.03 В 6 10 км 8/3 450 м
[St Ac trans Ci fib]
+19.8 +16.4 81 +22 +23 комфорт 1024.4 1023.7 +19.0 +21.4
15 21.03 В 4 10 км 8/8 450 м
[Sc]
+21.0 +17.0 78 +25 +27 комфорт 1024.0 1023.3
18 21.03 В 6 10 км 3/1 600 м
[Cu med, cong Cs]
+23.2 +17.3 69 +28 +32 душно 1022.1 1021.4
21 21.03 В 8 10 км 6/0
[Cs]
+22.7 +18.3 76 +28 +28 душно 1021.1 1020.4
00 22.03 В 5 10 км 6/1 420 м
[St Ac As Cs]
+21.6 +18.6 83 +26 +26 душно 1021.1 1020.4 +19.6 +24.0
03 22.03 В 6 10 км 9/4 450 м
[St Ac As]
+21.8 +19.0 84 +27 +27 душно 1021.5 1020.8
06 22.03 СВ 6 10 км 9/0
[Ac As Cs]
+21.8 +17.5 77 +26 +26 душно 1021.0 1020.4
09 22.03 В 4 10 км 6/4 500 м
[Sc Ac As]
+20.6 +18.1 86 +25 +25 комфорт 1020.6 1020.0
12 22.03 В 4 10 км 10/10 400 м
[Frnb]
+21.0 +18.3 85 +26 +26 душно 1021.6 1020.9 +20.5 +22.0
15 22.03 В 4 10 км 6/6 400 м
[Sc Ci sp]
+22.2 +18.8 81 +28 +32 душно 1021.0 1020.4
18 22.03 В 4 10 км 8/4 400 м
[Cu med, cong Ac cast Ci sp]
+22.1 +19.1 83 +28 +31 душно 1019.3 1018.6
21 22.03 В 6 10 км в посл. час дождь 5/1 450 м
[Sc Ac cast Cs]
+23.3 +19.6 80 +30 +30 очень
душно
1018.3 1017.6
00 23.03 В 6 10 км {дождь} 8/4 300 м
[St Ac As]
+22.0 +19.8 87 +28 +28 душно 1018.8 1018.1 +21.0 +23.0 0.0
03 23.03 С 3 10 км слабый дождь 10/4 240 м
[St As op]
+21.1 +19.2 89 +26 +26 душно 1018.7 1018.0
06 23.03 В 2 10 км {дождь} 8/3 300 м
[St Ac As]
+21.2 +19.3 89 +26 +26 душно 1017.2 1016.5 0.0
09 23.03 СВ 2 10 км 4/4 300 м
[St Ac As]
+20.6 +19.0 91 +25 +25 комфорт 1016.8 1016.1
12 23.03 СВ 2 10 км 8/8 330 м
[St]
+21.5 +19.2 87 +26 +27 душно 1017.7 1017.0 +20.1 +23.0 0.0
15 23.03 СВ 3 10 км 6/5 360 м
[St Ac trans]
+23.0 +19.8 82 +30 +35 очень
душно
1017.5 1016.8
18 23.03 В 3 10 км 4/3 1200 м
[Cb calv Ac trans]
+23.6 +19.4 77 +29 +34 душно 1015.2 1014.5
21 23.03 СВ 3 10 км 6/3 1350 м
[Cb cap Ac As Ci ing]
+24.4 +19.6 75 +30 +30 очень
душно
1014.4 1013.7
00 24.03 В 4 10 км 6/4 450 м
[St Ac As Cs]
+23.2 +20.1 83 +30 +30 очень
душно
1014.9 1014.2 +21.5 +24.5
03 24.03 В 2 10 км 5/4 750 м
[St Ac As]
+22.5 +20.0 86 +29 +29 очень
душно
1015.1 1014.4
06 24.03 З 2 10 км 1/1 360 м
[St]
+21.6 +20.2 92 +27 +27 душно 1014.1 1013.4
09 24.03 З 1 10 км 1/1 240 м
[St]
+21.0 +19.4 91 +27 +27 душно 1013.9 1013.2
12 24.03 З 2 8000 м дымка 4/1 450 м
[Cu med, cong Cs]
+24.0 +19.4 75 +29 +32 душно 1015.4 1014.6 +20.5 +24.0
15 24.03 СВ 4 4500 м дымка 5/5 600 м
[Cu med, cong]
+25.0 +21.4 80 +32 +37 очень
душно
1015.4 1014.6
18 24.03 СВ 3 10 км 1/1 600 м
[Cu med, cong]
+25.0 +20.5 76 +31 +39 очень
душно
1014.0 1013.3
21 24.03 В 3 10 км 3/0
[Cs]
+24.8 +21.8 83 +32 +32 очень
душно
1013.2 1012.5
00 25.03 В 5 10 км 1/1 600 м
[Sc]
+23.7 +20.8 84 +30 +30 очень
душно
1014.1 1013.4 +23.5 +25.6
03 25.03 В 4 10 км 4/4 360 м
[Sc]
+22.9 +20.8 88 +30 +30 очень
душно
1014.6 1013.8
06 25.03 В 3 10 км ясно +22.9 +20.0 84 +30 +30 очень
душно
1014.3 1013.6
09 25.03 В 2 10 км 4/0
[Ac As]
+22.9 +20.5 86 +30 +30 очень
душно
1014.9 1014.2
12 25.03 СВ 3 10 км 3/0
[Ac cast Ci fib]
+23.8 +20.0 79 +29 +32 душно 1016.3 1015.6 +22.0 +24.0
15 25.03 В 3 10 км 4/3 600 м
[Cu med, cong Ci]
+25.0 +20.8 78 +31 +39 очень
душно
1016.8 1016.1
18 25.03 В 6 10 км 4/3 600 м
[Cu Sc Ci]
+25.4 +21.5 79 +32 +35 очень
душно
1015.3 1014.6
21 25.03 В 7 10 км 1/1 450 м
[Sc]
+24.5 +20.1 76 +30 +30 очень
душно
1014.0 1013.3
00 26.03 В 8 10 км ясно +23.1 +20.5 85 +30 +30 очень
душно
1014.9 1014.2 +23.1 +25.5
03 26.03 СВ 5 10 км 4/0
[Ac und Ci]
+24.5 +19.1 72 +29 +29 душно 1015.1 1014.4
06 26.03 СВ 7 10 км 3/0
[Ac und Ci sp]
+22.6 +18.5 78 +28 +28 душно 1015.1 1014.4
09 26.03 СВ 6 10 км 4/4 480 м
[Sc Ci fib]
+21.5 +18.3 82 +26 +26 душно 1015.1 1014.4
12 26.03 СВ 5 10 км 10/10 360 м
[Sc]
+21.0 +18.3 85 +25 +25 комфорт 1016.4 1015.7 +21.0 +24.7
15 26.03 С 4 10 км 8/8 600 м
[Sc]
+24.0 +19.4 75 +29 +31 душно 1015.4 1014.6
18 26.03 С 3 10 км 9/4 1050 м
[Sc Ac As]
+25.5 +20.2 73 +31 +34 очень
душно
1013.7 1013.0
21 26.03 В 4 10 км 8/3 1200 м
[Cu hum Ac As Cs]
+25.6 +19.8 70 +31 +31 очень
душно
1013.7 1013.0
00 27.03 В 6 10 км 1/0
[Ac und]
+24.6 +19.7 74 +30 +30 очень
душно
1014.2 1013.6 +21.0 +26.1
03 27.03 В 6 10 км ясно +23.8 +19.5 77 +29 +29 душно 1015.5 1014.8
06 27.03 СВ 5 10 км ясно +22.6 +19.2 81 +29 +29 очень
душно
1016.2 1015.6
09 27.03 СВ 4 10 км 8/8 400 м
[St]
+21.6 +18.9 85 +26 +26 душно 1016.8 1016.1
12 27.03 С 4 10 км 8/6 300 м
[Sc Ac cast]
+22.1 +19.3 84 +28 +28 душно 1018.0 1017.3 +21.5 +25.0
15 27.03 С 2 10 км 9/9 300 м
[St]
+22.7 +19.8 84 +29 +30 очень
душно
1019.0 1018.4
18 27.03 В 5 10 км 3/1 600 м
[Cu med, cong Ci fib]
+24.8 +20.6 77 +31 +35 очень
душно
1018.1 1017.4
21 27.03 В 8 10 км 4/4 300 м
[Sc diur, vesp Ci fib]
+23.7 +20.8 84 +30 +30 очень
душно
1018.1 1017.4
00 28.03 В 7 10 км 4/4 1350 м
[Sc]
+23.5 +20.3 82 +29 +29 душно 1019.0 1018.4 +21.9 +25.0

 

Местоположение метеостанции Buenos Aires Aeropuerto (Аргентина): широта -34.56 долгота -58.41 высота над уровнем моря 6 м.

В архиве по умолчанию представлена погода в Buenos Aires Aeropuerto за последнюю неделю. Архивные данные за месяц целиком и за предыдущие месяцы, начиная с января 2011 года, Вы можете получить, выбрав интересующий диапазон дат из раскрывающегося списка и нажав кнопку "Ввод!".

Внимание! Время в таблицах - всемирное. Для получения местного времени необходимо прибавить поправку, которая в Buenos Aires Aeropuerto равна -3 ч.

Смотрите также архив погоды в соседних городах и на ближайших метеорологических станциях:

Погода в Buenos Aires (Аргентина) (7 км)
Погода в Ezeiza (Аргентина) (30 км)
Погода в Colonia (Уругвай) (55 км)
Погода в La Plata (Аргентина) (64 км)
Погода в Mercedes (Уругвай) (149 км)
Погода в Gualeguaychu (Аргентина) (174 км)
Погода в Las Flores (Аргентина) (179 км)
Погода в Melilla (Уругвай) (199 км)
Погода в Prado (Уругвай) (205 км)
Погода в Dolores (Аргентина) (206 км)

Пояснения к столбцам:

Ветер - указаны скорость ветра в м/с - средняя за 10 мин, порывы в срок и между сроками (в фигурных скобках) и направление, откуда дует ветер: С - северный, СВ - северо-восточный, В - восточный, ЮВ - юго-восточный, Ю - южный, ЮЗ - юго-западный, З - западный, СЗ - северо-западный.
Видимость - горизонтальная дальность видимости в метрах или километрах. При видимости от 1 до 10 км при отсутствии осадков обычно наблюдается дымка, при ухудшении видимости до 1 км и менее - туман. В сухую погоду видимость может ухудшаться дымом, пылью или мглою.
Явления - указаны атмосферные явления, наблюдавшиеся в срок или в последний час перед сроком; фигурными скобками обозначены явления, наблюдавшиеся между сроками (за 1-3 часа до срока); квадратными скобками обозначены град или гололедные отложения с указанием их диаметра в мм.
Облачность - указаны через наклонную черту общая и нижняя облачность в баллах и высота нижней границы облаков в метрах; квадратными скобками обозначены формы облаков: Ci - перистые, Cs - перисто-слоистые, Cc - перисто-кучевые, Ac - высококучевые, As - высокослоистые, Sc - слоисто-кучевые, Ns - слоисто-дождевые, Cu - кучевые, Cb - кучево-дождевые. Подробнее классификацию облаков см. в Атласе облаков (PDF).
T - Температура воздуха - температура, измеренная на высоте 2 м над землей.
Td - Температура точки росы - температура, при понижении до которой содержащийся в воздухе водяной пар достигнет насыщения.
f - Относительная влажность воздуха - влажноcть воздуха, измеренная на высоте 2 м над землей.
Te - Эффективная температура - температура, которую ощущает одетый по сезону человек в тени. Характеристика душности погоды. При расчете учитывается влияние влажности воздуха и скорости ветра на теплоощущения человека.
Tes - Эффективная температура на солнце - температура, которую ощущает человек, с поправкой на солнечный нагрев. Характеристика знойности погоды. Зависит от высоты солнца над горизонтом, облачности и скорости ветра. Ночью, в пасмурную погоду, а также при ветре 12 м/с и более поправка равна нулю.
P - Атмосферное давление - приведенное к уровню моря атмосферное давление.
Po - Атмосферное давление - измеренное на уровне метеостанции атмосферное давление.
Tmin - Минимальная температура - минимум температуры воздуха на высоте 2 м над землей.
Tmax - Максимальная температура - максимум температуры воздуха на высоте 2 м над землей.
R - Количество осадков - Количество выпавших осадков, мм. При наведении курсора мыши на число - период времени, за который выпало указанное количество осадков.
S - Снежный покров - Высота снежного покрова, см. При наведении курсора мыши на число - состояние снежного покрова и степень покрытия местности в баллах.